TimeCAT,TemperatureF,Dew PointF,Humidity,Sea Level PressureIn,VisibilityMPH,Wind Direction,Wind SpeedMPH,Gust SpeedMPH,PrecipitationIn,Events,Conditions,WindDirDegrees,DateUTC
12:00 AM,46.4,44.6,93,30.42,-9999.0,ESE,3.5,-,N/A,,Clear,110,2013-08-01 22:00:00
1:00 AM,46.4,44.6,93,30.42,-9999.0,SE,4.6,-,N/A,,Clear,130,2013-08-01 23:00:00
2:00 AM,42.8,42.8,100,30.39,-9999.0,SSE,4.6,-,N/A,,Clear,150,2013-08-02 00:00:00
3:00 AM,42.8,42.8,100,30.39,-9999.0,SE,3.5,-,N/A,,Clear,130,2013-08-02 01:00:00
4:00 AM,42.8,42.8,100,30.39,-9999.0,SE,4.6,-,N/A,,Clear,130,2013-08-02 02:00:00
5:00 AM,42.8,41.0,93,30.39,-9999.0,ESE,4.6,-,N/A,,Clear,120,2013-08-02 03:00:00
6:00 AM,42.8,41.0,93,30.39,-9999.0,SE,3.5,-,N/A,,Clear,140,2013-08-02 04:00:00
7:00 AM,46.4,42.8,87,30.42,-9999.0,East,4.6,-,N/A,,Clear,100,2013-08-02 05:00:00
8:00 AM,51.8,44.6,76,30.45,6.2,East,10.4,-,N/A,,Scattered Clouds,90,2013-08-02 06:00:00
9:00 AM,57.2,48.2,72,30.45,6.2,East,18.4,-,N/A,,Partly Cloudy,90,2013-08-02 07:00:00
10:00 AM,60.8,48.2,63,30.48,6.2,ENE,21.9,-,N/A,,Scattered Clouds,60,2013-08-02 08:00:00
11:00 AM,59.0,48.2,67,30.45,6.2,ESE,15.0,-,N/A,,Mostly Cloudy,120,2013-08-02 09:00:00
12:00 PM,64.4,48.2,56,30.42,6.2,ESE,13.8,-,N/A,,Scattered Clouds,120,2013-08-02 10:00:00
1:00 PM,66.2,48.2,52,30.39,6.2,ESE,12.7,-,N/A,,Scattered Clouds,110,2013-08-02 11:00:00
2:00 PM,68,48,38,,6,ESE,11.5,,,,Partly Cloudy,110,2013-08-02 12:00:00
2:00 PM,68.0,59.0,73,30.36,6.2,ESE,11.5,-,N/A,,Scattered Clouds,110,2013-08-02 12:00:00
3:00 PM,68.0,48.2,49,30.36,6.2,ESE,9.2,-,N/A,,Scattered Clouds,110,2013-08-02 13:00:00
4:00 PM,68.0,46.4,46,30.33,6.2,East,11.5,-,N/A,,Mostly Cloudy,100,2013-08-02 14:00:00
5:00 PM,68.0,46.4,46,30.33,6.2,East,17.3,-,N/A,,Scattered Clouds,100,2013-08-02 15:00:00
6:00 PM,62.6,48.2,59,30.36,6.2,East,9.2,-,N/A,,Scattered Clouds,90,2013-08-02 16:00:00
7:00 PM,62.6,46.4,55,30.36,6.2,East,15.0,-,N/A,,Partly Cloudy,90,2013-08-02 17:00:00
8:00 PM,61,45,45,,6,East,11.5,,,,Partly Cloudy,100,2013-08-02 18:00:00
8:00 PM,60.8,44.6,55,30.39,6.2,East,11.5,-,N/A,,Partly Cloudy,100,2013-08-02 18:00:00
9:00 PM,57.2,44.6,63,30.39,-9999.0,East,4.6,-,N/A,,Clear,90,2013-08-02 19:00:00
10:00 PM,55.4,44.6,67,30.39,-9999.0,East,5.8,-,N/A,,Clear,80,2013-08-02 20:00:00
11:00 PM,53.6,44.6,72,30.39,-9999.0,ESE,4.6,-,N/A,,Clear,110,2013-08-02 21:00:00